[[{"header":{"parameterUnit":"m.s-1","parameterCategory":1,"la1":30.2991,"la2":30.254,"lo1":-89.0895,"lo2":-89.0444,"dy":0.0017,"dx":0.0017,"nx":28,"ny":28,"refTime":"2024-02-22T09:00:00:Z","depth":0,"parameterNumber":2,"parameterNumberName":"U-component_of_WINDS"},"data":[0,0,0,0,0,0,0,0,0,0,0,0,0,0,0,0,0,0,0,0,0,0,0,0,0,0,0,0,0,0,0,0,0,0,0,0,0,0,0,0,0,0,0,0,0,0,0,0,0,0,0,0,0,0,0,0,0,0,2.7938,2.7938,0,2.7969,2.797,2.797,2.7934,2.7932,2.7931,2.793,2.7963,2.7965,2.7967,0,0,0,0,0,0,0,0,0,0,0,0,0,2.7849,2.7851,2.7938,2.7938,2.7939,2.7969,2.797,2.797,2.7934,2.7932,2.7931,2.7929,2.7963,2.7965,2.7968,0,0,0,0,0,0,0,0,0,0,0,0,0,2.7885,2.7851,2.7938,2.7924,2.7923,2.7969,2.797,2.797,2.7934,2.7932,2.793,2.7928,2.7962,2.7965,2.7968,2.8029,0,0,2.7978,2.7979,0,0,0,0,0,0,0,0,2.7883,2.7888,2.7926,2.7925,2.7924,2.7946,2.7951,2.799,2.7935,2.793,2.793,2.7927,2.7959,2.7962,2.7973,2.8031,2.8032,2.7978,2.798,2.7982,2.7983,0,0,0,0,0,0,0,2.788,2.7886,2.795,2.7927,2.7926,2.7917,2.792,2.7958,2.7956,2.7931,2.7928,2.7932,2.7958,2.797,2.7973,2.8033,2.7978,2.7981,2.7983,2.7984,2.8144,2.8147,0,0,0,0,0,0,2.7879,2.7885,2.7949,2.7951,2.7898,2.7921,2.7924,2.7941,2.7955,2.7956,2.7934,2.793,2.7965,2.797,2.7974,2.8048,2.7982,2.7985,2.7986,2.8142,2.8145,2.8147,0,0,0,0,0,0,2.7877,2.7885,2.7948,2.7917,2.7925,2.7924,2.7944,2.7943,2.7954,2.7958,2.7957,2.7946,2.7964,2.797,2.8016,2.8049,2.7986,2.7989,2.8139,2.8143,2.8146,2.8196,0,0,0,0,0,0,2.7875,2.7885,2.7907,2.7918,2.7927,2.7989,2.7946,2.7945,2.796,2.7955,2.7969,2.7969,2.7963,2.8012,2.8019,2.8052,2.7992,2.8136,2.8141,2.8145,2.8192,2.8201,2.8209,0,0,0,0,0,2.7872,2.792,2.7909,2.7917,2.7955,2.7991,2.7996,2.7987,2.7962,2.7986,2.7988,2.7969,2.8044,2.8017,2.8025,2.806,2.8134,2.814,2.8145,2.8188,2.8199,2.8209,0,0,0,0,0,0,2.7913,2.7921,2.7909,2.7962,2.7976,2.7985,2.8013,2.7999,2.802,2.8016,2.8004,2.8007,2.8057,2.8063,2.8032,2.8121,2.8085,2.8092,2.8115,2.8126,2.8134,2.8132,2.7994,0,0,0,0,0,2.7928,2.7956,2.7962,2.8008,2.8016,2.8014,2.8029,2.8021,2.8036,2.8041,2.8047,2.8063,2.809,2.8108,2.8133,2.8192,2.8196,2.822,2.8229,2.8236,2.8242,2.8276,2.8288,2.8164,2.8164,2.8164,0,0,2.796,2.7968,2.7986,2.8017,2.8027,2.8057,2.8019,2.8052,2.8075,2.8047,2.8091,2.8096,2.8113,2.8166,2.819,2.8172,2.8277,2.8242,2.8248,2.8251,2.8283,2.8294,2.8305,2.8168,2.8167,2.8167,0,0,2.8034,2.8042,2.8082,2.8093,2.8109,2.8108,2.8117,2.8129,2.8131,2.8176,2.8155,2.8183,2.8229,2.8242,2.8255,2.8336,2.8319,2.8344,2.839,2.8423,2.8432,2.8441,2.8471,2.8482,2.8351,2.8351,2.8351,0,2.8072,2.8116,2.8105,2.814,2.8155,2.8131,2.8172,2.8184,2.8207,2.8218,2.8198,2.8257,2.8266,2.8324,2.8344,2.8354,2.8366,2.8343,2.8432,2.844,2.8448,2.8477,2.8488,2.8354,2.8353,2.8353,2.8353,0,2.8162,2.8194,2.8224,2.8248,2.8266,2.8304,2.83,2.832,2.8311,2.8312,2.8358,2.8369,2.8396,2.8409,2.84,2.8466,2.8454,2.8433,2.8398,2.8463,2.849,2.8501,2.8358,2.8357,2.8356,2.8355,0,0,2.8263,2.8281,2.8292,2.8304,2.832,2.8344,2.8382,2.8409,2.8427,2.8444,2.8477,2.8518,2.8499,2.8513,2.8506,2.8534,2.86,2.851,2.851,2.8528,2.8675,2.8692,2.8705,2.8589,2.8591,2.8593,2.8674,0,2.8338,2.8403,2.8395,2.8458,2.8488,2.8466,2.8499,2.8514,2.8516,2.8542,2.8544,2.8574,2.8546,2.8555,2.8582,2.8586,2.863,2.858,2.862,2.8622,2.8618,2.8719,2.8736,2.8813,2.8685,2.8686,2.8688,0,2.8434,2.8456,2.8522,2.8535,2.8548,2.8578,2.8603,2.8627,2.8644,2.8644,2.8661,2.8649,2.8688,2.8651,2.8706,2.8673,2.8689,2.8693,2.8696,2.87,2.866,2.8727,2.8837,2.8849,2.8704,2.8703,2.8701,0,2.8503,2.8548,2.8594,2.8604,2.8621,2.8643,2.8651,2.8665,2.8682,2.8704,2.8716,2.8742,2.8757,2.8778,2.8774,2.8747,2.8831,2.8793,2.8833,2.8833,2.8852,2.8851,2.8967,2.886,2.886,2.886,2.886,0,2.8589,2.8631,2.8626,2.8654,2.8701,2.8691,2.8738,2.8743,2.8756,2.8786,2.8768,2.8797,2.8789,2.8818,2.8815,2.8862,2.8868,2.887,2.8869,2.8872,2.8873,2.8884,2.8879,2.8863,2.8862,2.8862,2.8861,0,2.8674,2.8672,2.8721,2.8733,2.8737,2.8771,2.8781,2.8809,2.881,2.8848,2.8856,2.8858,2.8891,2.8889,2.8926,2.8924,2.8983,2.8974,2.8977,2.8976,2.9016,2.9013,2.9145,2.9162,2.9043,2.9044,2.9045,0,2.8729,2.8761,2.8777,2.8795,2.8805,2.8835,2.8853,2.8845,2.8865,2.8887,2.8912,2.8943,2.8968,2.9022,2.9027,2.9056,2.9049,2.9093,2.9053,2.9057,2.9052,2.9051,2.9055,2.9102,2.9103,2.9104,2.9105,0,2.8829,2.8826,2.8852,2.8879,2.8901,2.8922,2.894,2.8957,2.8951,2.8974,2.9008,2.9027,2.9065,2.9097,2.9125,2.9134,2.912,2.9117,2.9128,2.9133,2.9134,2.9136,2.9,2.9115,2.9114,2.9113,2.9112,2.9112,2.8901,2.8929,2.8945,2.8976,2.8989,2.9007,2.9034,2.9039,2.9066,2.9097,2.9091,2.9129,2.9146,2.9182,2.9194,2.9224,2.9208,2.9224,2.9228,2.9233,2.9238,2.9128,2.9229,2.9229,2.9228,2.9228,2.9228,0,2.9001,2.9011,2.9038,2.9066,2.909,2.9073,2.9094,2.9116,2.9149,2.9166,2.9191,2.9231,2.9262,2.927,2.93,2.9323,2.9318,2.9332,2.9331,2.9333,2.9249,2.9238,2.9336,2.9336,2.9336,2.9336,2.9336,2.9336,2.9056,2.9103,2.9103,2.9157,2.9166,2.9203,2.9217,2.9234,2.9248,2.9292,2.9318,2.9323,2.9337,2.9369,2.9397,2.9399,2.9412,2.9429,2.9428,2.935,2.9339,2.9329,2.9318,2.9431,2.9431,2.951,2.951,2.9511]},{"header":{"parameterUnit":"m.s-1","parameterCategory":1,"la1":30.2991,"la2":30.254,"lo1":-89.0895,"lo2":-89.0444,"dy":0.0017,"dx":0.0017,"nx":28,"ny":28,"refTime":"2024-02-22T09:00:00:Z","depth":0,"parameterNumber":3,"parameterNumberName":"V-component_of_WINDS"},"data":[0,0,0,0,0,0,0,0,0,0,0,0,0,0,0,0,0,0,0,0,0,0,0,0,0,0,0,0,0,0,0,0,0,0,0,0,0,0,0,0,0,0,0,0,0,0,0,0,0,0,0,0,0,0,0,0,0,0,-2.7174,-2.7175,0,-2.7211,-2.7211,-2.7212,-2.7224,-2.7224,-2.7223,-2.7223,-2.7263,-2.7265,-2.7266,0,0,0,0,0,0,0,0,0,0,0,0,0,-2.7119,-2.712,-2.7174,-2.7175,-2.7175,-2.7211,-2.7211,-2.7212,-2.7224,-2.7224,-2.7223,-2.7223,-2.7263,-2.7264,-2.7266,0,0,0,0,0,0,0,0,0,0,0,0,0,-2.7148,-2.712,-2.7174,-2.7186,-2.7187,-2.7211,-2.7211,-2.7212,-2.7224,-2.7224,-2.7223,-2.7223,-2.7262,-2.7264,-2.7266,-2.7282,0,0,-2.7272,-2.7272,0,0,0,0,0,0,0,0,-2.7146,-2.715,-2.7183,-2.7185,-2.7186,-2.7212,-2.7206,-2.7235,-2.7224,-2.721,-2.7223,-2.7223,-2.7247,-2.725,-2.7257,-2.7284,-2.7286,-2.7272,-2.7273,-2.7274,-2.7274,0,0,0,0,0,0,0,-2.7144,-2.7149,-2.7189,-2.7184,-2.7186,-2.719,-2.7194,-2.7212,-2.7229,-2.7211,-2.7212,-2.7216,-2.7248,-2.7256,-2.7258,-2.7286,-2.7272,-2.7273,-2.7274,-2.7275,-2.733,-2.733,0,0,0,0,0,0,-2.714,-2.7147,-2.7188,-2.719,-2.7165,-2.7191,-2.7195,-2.7204,-2.7229,-2.7233,-2.7216,-2.7216,-2.7253,-2.7256,-2.726,-2.7281,-2.7274,-2.7275,-2.7276,-2.7329,-2.733,-2.733,0,0,0,0,0,0,-2.7139,-2.7144,-2.7186,-2.7169,-2.7174,-2.7192,-2.7202,-2.7205,-2.7213,-2.7233,-2.7236,-2.7221,-2.7252,-2.7257,-2.7277,-2.7283,-2.7276,-2.7278,-2.7329,-2.7329,-2.733,-2.7323,0,0,0,0,0,0,-2.7137,-2.7143,-2.7148,-2.7169,-2.7175,-2.7201,-2.7203,-2.7206,-2.7216,-2.7217,-2.7238,-2.7242,-2.7253,-2.7274,-2.7278,-2.7285,-2.7279,-2.7328,-2.7329,-2.733,-2.7323,-2.7324,-2.7324,0,0,0,0,0,-2.7135,-2.7145,-2.7149,-2.7153,-2.7182,-2.7202,-2.7205,-2.7217,-2.7216,-2.7223,-2.7236,-2.7241,-2.7281,-2.7276,-2.7281,-2.7288,-2.7328,-2.7329,-2.733,-2.7323,-2.7324,-2.7324,0,0,0,0,0,0,-2.7126,-2.7148,-2.7152,-2.7169,-2.7183,-2.7203,-2.7212,-2.7217,-2.7233,-2.7233,-2.7247,-2.7252,-2.7271,-2.7282,-2.7275,-2.7306,-2.7305,-2.7307,-2.7298,-2.7299,-2.7299,-2.7297,-2.7281,0,0,0,0,0,-2.7126,-2.7139,-2.7158,-2.7171,-2.7178,-2.7193,-2.7202,-2.721,-2.7226,-2.7232,-2.7247,-2.7263,-2.7279,-2.729,-2.7306,-2.7325,-2.7331,-2.7333,-2.7333,-2.7333,-2.7335,-2.7347,-2.7349,-2.7333,-2.7333,-2.7333,0,0,-2.7126,-2.714,-2.7147,-2.717,-2.7181,-2.7196,-2.7198,-2.7213,-2.7224,-2.7235,-2.7254,-2.7265,-2.7284,-2.7304,-2.7313,-2.7313,-2.7341,-2.7334,-2.7334,-2.7336,-2.7348,-2.735,-2.7351,-2.7333,-2.7333,-2.7333,0,0,-2.7133,-2.7144,-2.7157,-2.7169,-2.7187,-2.7197,-2.72,-2.722,-2.7228,-2.7247,-2.7256,-2.727,-2.7297,-2.7311,-2.7321,-2.7335,-2.7341,-2.734,-2.7343,-2.7354,-2.7356,-2.7357,-2.7363,-2.7365,-2.7342,-2.7342,-2.7342,0,-2.7131,-2.7152,-2.7163,-2.7177,-2.7188,-2.7197,-2.7211,-2.7223,-2.7245,-2.7253,-2.7252,-2.7288,-2.7301,-2.7325,-2.7328,-2.7336,-2.7341,-2.7338,-2.7354,-2.7356,-2.7357,-2.7363,-2.7365,-2.7341,-2.7341,-2.7341,-2.7341,0,-2.7149,-2.7164,-2.7172,-2.7193,-2.7204,-2.7218,-2.7233,-2.7243,-2.725,-2.7261,-2.7281,-2.7298,-2.7318,-2.7324,-2.7331,-2.7349,-2.7349,-2.7351,-2.7351,-2.7358,-2.7364,-2.7366,-2.7341,-2.7341,-2.7341,-2.7341,0,0,-2.7152,-2.7179,-2.7182,-2.7192,-2.7213,-2.7225,-2.724,-2.7259,-2.7268,-2.7284,-2.7298,-2.7321,-2.7324,-2.7336,-2.7345,-2.7355,-2.7367,-2.7357,-2.7357,-2.7359,-2.7389,-2.7388,-2.739,-2.7371,-2.7371,-2.7372,-2.7388,0,-2.7162,-2.7188,-2.7199,-2.7221,-2.7235,-2.7245,-2.7259,-2.7274,-2.7285,-2.73,-2.7312,-2.7329,-2.7331,-2.7338,-2.7349,-2.7363,-2.7373,-2.7362,-2.7385,-2.7386,-2.7381,-2.7393,-2.7391,-2.7405,-2.739,-2.739,-2.7391,0,-2.7178,-2.7193,-2.7216,-2.7236,-2.7242,-2.7254,-2.7273,-2.7287,-2.7305,-2.7312,-2.7326,-2.7334,-2.7352,-2.7351,-2.7376,-2.7369,-2.7379,-2.7388,-2.7389,-2.7392,-2.7389,-2.7397,-2.741,-2.7413,-2.7394,-2.7394,-2.7394,0,-2.7178,-2.7204,-2.7222,-2.723,-2.7254,-2.7262,-2.7273,-2.729,-2.7301,-2.7319,-2.7326,-2.7345,-2.7356,-2.7372,-2.7386,-2.7383,-2.7411,-2.741,-2.7419,-2.7418,-2.7424,-2.7424,-2.744,-2.743,-2.743,-2.743,-2.743,0,-2.7189,-2.7203,-2.7222,-2.7233,-2.725,-2.7263,-2.7279,-2.7291,-2.7307,-2.7321,-2.7331,-2.7344,-2.7362,-2.7378,-2.739,-2.741,-2.7415,-2.7422,-2.7425,-2.7422,-2.7421,-2.7429,-2.7429,-2.743,-2.743,-2.743,-2.743,0,-2.7192,-2.7206,-2.7225,-2.7246,-2.7252,-2.7263,-2.7282,-2.7294,-2.7305,-2.7324,-2.7329,-2.7348,-2.7367,-2.7383,-2.7409,-2.7417,-2.7439,-2.7441,-2.7432,-2.7434,-2.7442,-2.7442,-2.7465,-2.7469,-2.7455,-2.7455,-2.7455,0,-2.7199,-2.7209,-2.7232,-2.7241,-2.7252,-2.7267,-2.7279,-2.7293,-2.7305,-2.7327,-2.7336,-2.7357,-2.7373,-2.7405,-2.7422,-2.7442,-2.7446,-2.7453,-2.7449,-2.7446,-2.7448,-2.7447,-2.7449,-2.7454,-2.7454,-2.7454,-2.7454,0,-2.7209,-2.7215,-2.723,-2.7248,-2.7262,-2.7277,-2.7292,-2.73,-2.7318,-2.7331,-2.735,-2.7364,-2.739,-2.7411,-2.7433,-2.7446,-2.7453,-2.7455,-2.7458,-2.7455,-2.7449,-2.7454,-2.7434,-2.7454,-2.7454,-2.7454,-2.7454,-2.7454,-2.7214,-2.7225,-2.7242,-2.726,-2.7273,-2.7287,-2.7299,-2.7313,-2.7329,-2.7351,-2.7359,-2.738,-2.74,-2.743,-2.7443,-2.7461,-2.7461,-2.7466,-2.7467,-2.7468,-2.7468,-2.7446,-2.7465,-2.7465,-2.7465,-2.7465,-2.7465,0,-2.7226,-2.7237,-2.7253,-2.7274,-2.7288,-2.7293,-2.7311,-2.7323,-2.7341,-2.7358,-2.7375,-2.7398,-2.7419,-2.7437,-2.7459,-2.747,-2.7474,-2.7475,-2.7475,-2.7478,-2.7466,-2.7461,-2.7472,-2.7472,-2.7472,-2.7472,-2.7472,-2.7472,-2.7233,-2.7252,-2.726,-2.7286,-2.7298,-2.7318,-2.7328,-2.7342,-2.7356,-2.7382,-2.7398,-2.741,-2.7429,-2.7452,-2.7471,-2.7477,-2.7485,-2.7485,-2.7491,-2.748,-2.7479,-2.7478,-2.7474,-2.7486,-2.7486,-2.7502,-2.7502,-2.7502]}]]